www.pogodaiklimat.ru

Погода и климат >> Архив погоды >> Кувейт >> Abdaly


ПОГОДА в Abdaly

  • Прогноз погоды в Abdaly
  • Монитор погоды в Abdaly
  • Климат города

АРХИВ ПОГОДЫ в Abdaly

Время (UTC), дата Ветер
(напр.,м/с)
 
Видим.   Явления Облачность Т
(С)
Тd
(С)
f
(%)
Тe
(С)
Тes
(С)
Комфортность P
(гПа)
Po
(гПа)
Тmin
(С)
Tmax
(С)
R
(мм)
R24
(мм)
S
(см)
12 17.11 СЗ 2 16 км н/о +26.7 +5.3 25 +26 +26 жарко 1016.4 1016.0
15 17.11 С 1 16 км н/о +21.1 +3.3 31 +21 +21 комфорт 1017.3 1017.0
18 17.11 З 1 6000 м дымка н/о +16.7 +3.4 41 +18 +18 1018.3 1018.0
21 17.11 З 1 6000 м дымка н/о +13.4 +1.7 45 +14 +14 1018.3 1018.0 +12.1 +27.4
00 18.11 СЗ 2 10 км н/о +11.7 -0.2 44 +11 +11 1018.3 1018.0
03 18.11 З 2 14 км н/о +10.7 +1.8 54 +10 +10 1019.0 1019.0
06 18.11 СЗ 2 5000 м дымка н/о +17.8 +1.9 34 +19 +19 1021.3 1021.0
09 18.11 ЮВ 1 11 км н/о +27.1 +7.0 28 +27 +27 жарко 1019.6 1020.0
12 18.11 ЮВ 1 16 км н/о +26.7 +5.1 25 +26 +26 жарко 1018.3 1018.0
15 18.11 ЮВ 1 10 км н/о +18.8 +4.5 39 +21 +21 комфорт 1018.6 1019.0
18 18.11 ЮЗ 1 8000 м дымка н/о +17.5 +9.8 61 +19 +19 1019.5 1020.0
21 18.11 ЮЗ 1 3600 м дымка н/о +15.7 +12.7 82 +17 +17 1019.3 1019.0 +10.0 +28.3
00 19.11 ЮЗ 1 3000 м дымка н/о +13.4 +11.4 88 +14 +14 1019.0 1019.0
03 19.11 В 1 2500 м дымка н/о +13.5 +11.8 89 +14 +14 1019.4 1019.0
06 19.11 ЮВ 1 5000 м дымка н/о +20.3 +14.9 71 +24 +24 комфорт 1020.8 1021.0
09 19.11 Ю 3 13 км н/о +26.0 +12.8 44 +28 +28 жарко 1019.0 1019.0
12 19.11 Ю 2 18 км н/о +26.3 +10.3 37 +27 +27 жарко 1017.4 1017.0
15 19.11 Ю 2 15 км н/о +22.0 +13.5 59 +25 +25 комфорт 1018.1 1018.0
18 19.11 Ю 2 6000 м дымка н/о +19.0 +16.1 83 +21 +21 комфорт 1018.5 1019.0
21 19.11 ЮВ 1 5000 м дымка н/о +17.6 +16.5 93 +19 +19 1017.8 1018.0 +12.6 +27.6
00 20.11 Ю 1 2500 м дымка н/о +15.7 +15.7 100 +17 +17 1017.6 1018.0
03 20.11 Ю 2 2600 м дымка н/о +15.5 +15.5 100 +16 +16 1018.2 1018.0
06 20.11 Ю 2 5000 м дымка н/о +22.9 +18.9 78 +29 +29 очень
душно
1019.0 1019.0
09 20.11 Ю 3 12 км н/о +27.6 +14.1 44 +30 +30 жарко 1016.7 1017.0
12 20.11 Ю 3 11 км н/о +27.4 +13.7 43 +29 +29 жарко 1015.2 1015.0
15 20.11 Ю 2 9000 м дымка н/о +23.0 +14.9 60 +27 +27 душно 1015.6 1016.0
18 20.11 Ю 1 2400 м дымка н/о +20.4 +19.4 94 +25 +25 комфорт 1015.7 1016.0
21 20.11 Ю 1 2200 м дымка н/о +20.0 +19.4 96 +24 +24 комфорт 1014.6 1015.0 +14.9 +29.0
00 21.11 Ю 1 5000 м дымка н/о +22.0 +19.6 86 +28 +28 душно 1013.3 1013.0
03 21.11 Ю 2 6000 м дым н/о +22.0 +19.4 85 +27 +27 душно 1013.2 1013.0
09 21.11 ЮВ 2 12 км слаб. дождь {ливн. осадки} н/о +22.1 +13.8 59 +25 +25 комфорт 1012.4 1012.0
12 21.11 ЮВ 3 9000 м морось {ливн. осадки, дождь} н/о +21.0 +18.8 87 +26 +26 душно 1012.0 1012.0
15 21.11 Ю 3 6000 м дымка {ливн. осадки, морось} н/о +20.3 +18.2 88 +24 +24 комфорт 1011.6 1012.0
06 22.11 З 6 14 км н/о +21.5 +14.5 64 +24 +24 комфорт 1011.7 1012.0
09 22.11 С 6 13 км дымка н/о +26.3 +11.3 39 +27 +27 жарко 1010.6 1011.0
12 22.11 СВ 4 19 км н/о +26.8 +8.7 32 +27 +27 жарко 1010.2 1010.0
15 22.11 С 3 17 км н/о +22.1 +10.0 46 +24 +24 комфорт 1011.9 1012.0
18 22.11 С 3 5000 м дымка н/о +18.8 +11.4 62 +20 +20 1013.6 1014.0
21 22.11 С 2 11 км н/о +15.5 +5.8 52 +15 +15 1013.9 1014.0
00 23.11 С 2 12 км н/о +13.0 +4.7 57 +12 +12 1014.7 1015.0
03 23.11 СЗ 2 17 км н/о +11.3 +3.6 59 +11 +11 1015.6 1016.0
06 23.11 С 2 16 км н/о +17.5 +4.9 43 +18 +18 1017.5 1018.0
09 23.11 С 3 12 км н/о +22.3 +4.3 31 +22 +22 комфорт 1016.4 1016.0
12 23.11 СВ 3 18 км н/о +21.9 +3.0 29 +22 +22 комфорт 1015.6 1016.0
15 23.11 СВ 1 19 км н/о +17.3 +3.3 39 +18 +18 1016.4 1016.0
18 23.11 Ю 1 14 км н/о +12.3 +4.0 57 +13 +13 1016.9 1017.0
21 23.11 З 1 12 км н/о +10.9 +4.1 63 +11 +11 1017.6 1018.0 +10.2 +23.2
00 24.11 З 2 12 км н/о +10.3 +1.5 54 +10 +10 1018.0 1018.0
03 24.11 С 2 20 км н/о +9.5 +0.9 55 +9 +9 1019.3 1019.0
06 24.11 З 1 20 км н/о +14.6 +3.0 46 +15 +15 1020.8 1021.0

 

Местоположение метеостанции Abdaly (Кувейт): широта 30.08 долгота 47.70 высота над уровнем моря 70 м.

В архиве по умолчанию представлена погода в Abdaly за последнюю неделю. Архивные данные за месяц целиком и за предыдущие месяцы, начиная с января 2011 года, Вы можете получить, выбрав интересующий диапазон дат из раскрывающегося списка и нажав кнопку "Ввод!".

Внимание! Время в таблицах - всемирное. Для получения местного времени необходимо прибавить поправку, которая в Abdaly равна 3 ч.

Смотрите также архив погоды в соседних городах и на ближайших метеорологических станциях:

Погода в Sabriyah (Кувейт) (39 км)
Погода в Mitribah (Кувейт) (43 км)
Погода в Basrah Airport (Ирак) (50 км)
Погода в Jal Aliyah (Кувейт) (54 км)
Погода в Basrah (Ирак) (55 км)
Погода в Abadan (Иран) (62 км)
Погода в Bubiyan (Кувейт) (74 км)
Погода в Fao (Ирак) (78 км)
Погода в Jahra (Кувейт) (85 км)
Погода в Failaka Island (Кувейт) (88 км)

Пояснения к столбцам:

Ветер - указаны скорость ветра в м/с - средняя за 10 мин, порывы в срок и между сроками (в фигурных скобках) и направление, откуда дует ветер: С - северный, СВ - северо-восточный, В - восточный, ЮВ - юго-восточный, Ю - южный, ЮЗ - юго-западный, З - западный, СЗ - северо-западный.
Видимость - горизонтальная дальность видимости в метрах или километрах. При видимости от 1 до 10 км при отсутствии осадков обычно наблюдается дымка, при ухудшении видимости до 1 км и менее - туман. В сухую погоду видимость может ухудшаться дымом, пылью или мглою.
Явления - указаны атмосферные явления, наблюдавшиеся в срок или в последний час перед сроком; фигурными скобками обозначены явления, наблюдавшиеся между сроками (за 1-3 часа до срока); квадратными скобками обозначены град или гололедные отложения с указанием их диаметра в мм.
Облачность - указаны через наклонную черту общая и нижняя облачность в баллах и высота нижней границы облаков в метрах; квадратными скобками обозначены формы облаков: Ci - перистые, Cs - перисто-слоистые, Cc - перисто-кучевые, Ac - высококучевые, As - высокослоистые, Sc - слоисто-кучевые, Ns - слоисто-дождевые, Cu - кучевые, Cb - кучево-дождевые. Подробнее классификацию облаков см. в Атласе облаков (PDF).
T - Температура воздуха - температура, измеренная на высоте 2 м над землей.
Td - Температура точки росы - температура, при понижении до которой содержащийся в воздухе водяной пар достигнет насыщения.
f - Относительная влажность воздуха - влажноcть воздуха, измеренная на высоте 2 м над землей.
Te - Эффективная температура - температура, которую ощущает одетый по сезону человек в тени. Характеристика душности погоды. При расчете учитывается влияние влажности воздуха и скорости ветра на теплоощущения человека.
Tes - Эффективная температура на солнце - температура, которую ощущает человек, с поправкой на солнечный нагрев. Характеристика знойности погоды. Зависит от высоты солнца над горизонтом, облачности и скорости ветра. Ночью, в пасмурную погоду, а также при ветре 12 м/с и более поправка равна нулю.
P - Атмосферное давление - приведенное к уровню моря атмосферное давление.
Po - Атмосферное давление - измеренное на уровне метеостанции атмосферное давление.
Tmin - Минимальная температура - минимум температуры воздуха на высоте 2 м над землей.
Tmax - Максимальная температура - максимум температуры воздуха на высоте 2 м над землей.
R - Количество осадков - Количество выпавших осадков за период времени, мм. При наведении курсора мыши на число - период времени, за который выпало указанное количество осадков.
R24 - Количество осадков - Количество выпавших осадков за 24 часа, мм.
S - Снежный покров - Высота снежного покрова, см. При наведении курсора мыши на число - состояние снежного покрова и степень покрытия местности в баллах.